Other Public Products
Issued by NWS Grand Forks, ND

Home | Current Version | Previous Version | Graphics & Text | Print | Product List | Glossary On
Versions: 1 2 3 4 5 6 7 8 9 10 11 12 13 14 15 16 17 18 19 20 21 22 23 24 25 26 27 28 29 30 31 32 33 34 35 36 37 38 39 40 41 42 43 44 45 46 47 48 49 50
821
FPUS83 KFGF 200810
OPUFGF
PRAIRIE TO PINES WEATHER ROUNDUP
NATIONAL WEATHER SERVICE EASTERN NORTH DAKOTA/GRAND FORKS ND
200 AM CST FRI JAN 20 2017

 **SATELLITE DATA USED TO AUGMENT SKY COVER AT AUTOMATED STATIONS**
 *****  WEATHER ACROSS EASTERN NORTH DAKOTA  *****

CITY           SKY/WX    TMP DP  RH WIND       PRES   REMARKS
GRAND FORKS    CLOUDY    35  33  92 S8        29.54S FOG
GRAND FORKS AF CLOUDY    34  34 100 S8        29.53S FOG
GRAND CITY NWS NOT AVBL
BUXTON         NOT AVBL
DEVILS LAKE    FOG       27  26  96 S12       29.49S VSB 1   WCI  17
FARGO          CLOUDY    49  35  58 S13       29.56R HAZE
WAHPETON ARPT  CLOUDY    34  32  93 SE8       29.57S
$$

 *****  WEATHER ACROSS CENTRAL AND WESTERN NORTH DAKOTA  *****

CITY           SKY/WX    TMP DP  RH WIND       PRES   REMARKS
JAMESTOWN      FOG       33  33 100 SE8       29.48S VSB 1/2
BISMARCK       FOG       18  17  96 E6        29.45F VSB 1/4 WCI  10
MINOT          FAIR      22  18  85 S6        29.40S WCI  14
MINOT AFB      FAIR      15  12  89 S7        29.39S WCI   5
GARRISON         N/A     10   7  87 CALM      29.41S
WILLISTON      FAIR      15  14  95 CALM      29.41F FOG
DICKINSON      FAIR      19  14  81 W12       29.36F WCI   7
HETTINGER      FAIR      22  17  81 NW6       29.40F WCI  14
$$

 *****  OTHER OBSERVATIONS NORTHEAST NORTH DAKOTA  *****

CITY           SKY/WX    TMP DP  RH WIND       PRES   REMARKS
WALHALLA       NOT AVBL
LANGDON        NOT AVBL
CAVALIER         N/A     34  32  93 S16       29.51S FOG     WCI  23
GRAFTON        CLOUDY    32  32 100 S10       29.55S FOG     WCI  24
CANDO          NOT AVBL
FORT TOTTEN      N/A     27  27 100 S7        29.95  WCI  19
ROLLA            N/A    N/A N/A N/A MISG        N/A
RUGBY            N/A     16  14  93 SE12      29.44R WCI   3
 ***** THE ABOVE OBSERVATIONS ARE NON NWS ARE NOT QUALITY
        CONTROLLED AND MAY MIS-REPORT RAIN FOR SNOW...
$$

 *****  OTHER OBSERVATIONS SOUTHEAST NORTH DAKOTA *****

CITY           SKY/WX    TMP DP  RH WIND       PRES   REMARKS
COOPERSTOWN    FOG       34  34 100 S9        29.51S VSB 1/4
VALLEY CITY    FOG       32  32 100 S9        29.53S VSB 3/4 WCI  24
OAKES          NOT AVBL
GWINNER        CLOUDY    36  36 100 SE9       29.53R
SHEYENNE NWR     N/A     35  34  96 S8        29.95S
BUFFALO        NOT AVBL
WYNDMERE       NOT AVBL
 ***** THE ABOVE OBSERVATIONS ARE NON NWS ARE NOT QUALITY
       CONTROLLED AND MAY MIS-REPORT RAIN FOR SNOW...
$$

  *****  WEATHER ACROSS NORTHERN MINNESOTA  *****

CITY           SKY/WX    TMP DP  RH WIND       PRES   REMARKS
FLAG ISLAND    FOG       30  28  93 S6        29.56S VSB 1/2 WCI  24
WARROAD        CLOUDY    36  30  80 SW6       29.58R FOG
ROSEAU         CLOUDY    36  30  80 SW12      29.58R HAZE
HALLOCK        CLOUDY    34  34 100 S14       29.54S FOG     WCI  24
THF RVR FALLS  CLOUDY    34  33  96 S10       29.57S FOG
HALSTAD        NOT AVBL
FOSSTON        CLOUDY    34  32  93 SE12      29.59R FOG
BAUDETTE       FOG       36  36 100 S6        29.58R VSB 1/2
WASKISH        CLOUDY    37  36  93 S8        29.61R FOG
CROOKSTON      CLOUDY    36  36 100 S13       29.56S FOG
$$
  *****  WEATHER ACROSS CENTRAL AND WEST MINNESOTA  *****

CITY           SKY/WX    TMP DP  RH WIND       PRES   REMARKS
BEMIDJI        CLOUDY    33  33 100 S7        29.60R FOG
PARK RAPIDS    FOG       34  31  88 S5        29.59F VSB 1/4
WADENA         DRZL/FOG  32  32 100 CALM      29.60S VSB 1/4
DETROIT LAKES  FOG       34  34 100 SE10      29.59R VSB 1
MOORHEAD       CLOUDY    34  34 100 S10       29.58R FOG
FERGUS FALLS   FOG       36  36 100 SE12      29.62S VSB 1
ELBOW LAKE     CLOUDY    33  33 100 E7        29.58F FOG
MORRIS MN      FOG       34  34 100 SE9       29.57F VSB 1/4
STAPLES          N/A     34  34 100 CALM      29.61S FOG
WHEATON        CLOUDY    39  39 100 SE9       29.58S FOG
$$
  *****  WEATHER ELSEWHERE ACROSS MINNESOTA  *****

CITY           SKY/WX    TMP DP  RH WIND       PRES   REMARKS
DULUTH         CLOUDY    36  32  85 S8        29.65S
INTRNTL FALLS    N/A     33  31  92 CALM      29.60S FOG
ELY            FAIR      30  30 100 SE5       29.66S FOG
CLOQUET        MOCLDY    34  30  86 SE3       29.65F FOG
BRAINERD       CLOUDY    34  32  92 CALM      29.62S FOG
HIBBING        FOG       20  20 100 CALM      29.64S VSB 3/4
ALEXANDRIA     FOG       33  33 100 SE8       29.60S VSB 3/4
SAINT CLOUD    CLOUDY    34  34 100 E6        29.62F FOG
MINNEAPOLIS    LGT RAIN  35  33  92 SE8       29.65F FOG
$$

  *****  WEATHER ACROSS SOUTH DAKOTA  *****

CITY           SKY/WX    TMP DP  RH WIND       PRES   REMARKS
SIOUX FALLS    CLOUDY    37  37 100 S9        29.56F FOG
BROOKINGS      FOG       35  34  96 S9        29.53F VSB 1/2
WATERTOWN      CLOUDY    34  34 100 S13       29.52S FOG     WCI  25
HURON          CLOUDY    37  37 100 S12       29.49F
SISSETON         N/A     34  34 100 S10       29.53F
ABERDEEN       CLOUDY    34  32  92 SE12      29.49F FOG
MITCHELL       CLOUDY    38  38 100 SE13      29.50F
PIERRE         FOG       22  20  92 W3        29.43S VSB 1/4
MOBRIDGE       FOG       23  20  88 CALM      29.41F VSB 1/2
RAPID CITY     FAIR      28  19  69 NW8       29.40S WCI  20
$$

  *****  SOME WEATHER IN NEARBY STATES *****

CITY           SKY/WX    TMP DP  RH WIND       PRES   REMARKS
GLASGOW MT     MOCLDY    27  22  81 NW9       29.43R WCI  18
GREAT FALLS MT CLOUDY    36  26  67 SW14      29.46F
CHEYENNE WY    FAIR      33  20  58 W10       29.47F WCI  25
SCOTTSBLUFF NE FAIR      26  21  81 NE3       29.48F
OMAHA NE       FOG       37  34  89 N3        29.60S VSB 1/4
DES MOINES IA  DRZL/FOG  37  36  96 SE3       29.61S VSB 1/2
DAVENPORT IA   FOG       36  35  96 E6        29.64S VSB 1/4
CHICAGO IL     LGT RAIN  38  37  97 NE10      29.65F FOG
EAU CLAIRE WI  LGT RAIN  35  34  96 NE6       29.68F FOG
LA CROSSE WI   FOG       37  34  89 CALM      29.68S VSB 1/2
$$

  *****  SOME NATIONAL WEATHER *****

CITY           SKY/WX    TMP DP  RH WIND       PRES   REMARKS
LA GUARDIA NY  CLOUDY    42  32  67 NE6       30.03S
RALEIGH NC     CLOUDY    49  42  77 S5        29.97R
ATLANTA GA     MOCLDY    64  61  90 SW14G23   29.82S
NEW ORLEANS LA FAIR      64  62  93 S7        29.81F
OKLAHOMA CITY  FOG       46  45  96 SE7       29.51S VSB 1/4
ALBUQUERQUE NM MOCLDY    41  28  60 S10       29.75S
SALT LAKE CITY FOG       29  29 100 W6        29.67F VSB 1/4 WCI  23
LOS ANGELES CA MOCLDY    55  50  83 W15       29.87F
BOISE ID       CLOUDY    35  31  85 SE7       29.60F
SEATTLE WA     FAIR      42  36  79 E7        29.42F
$$

*** WEATHER ACROSS MANITOBA...SASKATCHEWAN AND ONTARIO ***
                ***ONTARIO***

CITY           SKY/WX    TMP DP  RH WIND       PRES   REMARKS
GERALDTON        N/A     34  34 100 SW10      29.67R FOG
THUNDER BAY    FOG       30  30 100 NW3       29.73R VSB 1/4
SIOUX LOOKOUT  FOG       36  36 100 S7        29.59R VSB 1/8
TORONTO        CLOUDY    34  30  86 E2        29.91F
BIG TROUT LK   CLEAR     25  25 100 NW3       29.52  FOG
PICKLE LAKE    NOT AVBL
DRYDEN         FOG       36  36 100 S8        29.58S VSB 3/8
KENORA         FOG       34  34 100 S8        29.56R VSB 1/4
$$
                *** MANITOBA***

CITY           SKY/WX    TMP DP  RH WIND       PRES   REMARKS
BRANDON        CLEAR     18  16  93 S6        29.42S WCI   9
DAUPHIN        CLEAR     28  27  93 VRB2      29.39S
ISLAND LAKE    PTCLDY    27  25  93 SE3       29.48S FOG
PILOT MOUND      N/A     18  16  93 S12         N/A  WCI   5
THE PAS        MOCLDY    28  27  93 VRB2      29.39R
THOMPSON       FOG       28  28 100 E2        29.48R VSB 3/4
WINNIPEG       CLOUDY    30  30 100 S15G22    29.51R FOG     WCI  19
LYNN LAKE      FLURRIES  28  28 100 E7        29.44F WCI  21
CHURCHILL      FLURRIES  19  18  93 E14       29.61R WCI   6
GILLAM         FLURRIES  28  27  93 NE5       29.52R WCI  23
$$
                ***SASKATCHEWAN***

CITY           SKY/WX    TMP DP  RH WIND       PRES   REMARKS
ESTEVAN        CLEAR     14  12  92 S6        29.39S WCI   5
KINDERSLEY     CLOUDY    34  28  80 SW9       29.29R
LLOYDMINSTER   MOCLDY    27  25  93 W8        29.24R WCI  18
PRINCE ALBERT  PTCLDY    19  18  93 E7        29.28F FOG     WCI  10
REGINA         CLEAR     23  21  93 SE7       29.37S WCI  15
YORKTON        CLEAR     27  25  93 S8        29.37R WCC1F1C2F2C3F3C4F4C5F5C6F6C7F7C8F8C9F9CaFaCbFbCcFcCdFdCe!



USA.gov is the U.S. government's official web portal to all federal, state and local government web resources and services.